Volver al catálogo

GEOSKAN-2

ActivoRadioaficionadoSSO
NORAD 64890·PAYLOAD·🇷🇺 Russia
Este nombre de satélite aún no ha sido confirmado por fuentes oficiales.

Lanzado Jul 25, 2025 desde Vostochny Cosmodrome

Loading…

Próximos Pases (próximas 24 horas)

TLE

ActualizadoSource: Space-Track

Época: Sep 14, 2026, 14:28 UTC

1 64890U 25155Q   26257.60342090  .00009758  00000-0  31143-3 0  9995
2 64890  97.4661 227.0756 0006120 187.5397 172.5754 15.32686624 94478

Sigue GEOSKAN-2 en tiempo real con AllMySat

Download on the App Store